Regional Weather Roundup
Issued by NWS Boston, MA

Home | Current Version | Previous Version | Text Only | Print | Product List | Glossary On
Versions: 1 2 3 4 5 6 7 8 9 10 11 12 13 14 15 16 17 18 19 20 21 22 23 24 25 26 27 28 29 30 31 32 33 34 35 36 37 38 39 40 41 42 43 44 45 46 47 48 49 50
565
ASUS41 KBOX 051610
RWRBOX

REGIONAL WEATHER ROUNDUP
NATIONAL WEATHER SERVICE TAUNTON MA
1200 PM EDT THU MAY 05 2016

NOTE:  "FAIR" INDICATES FEW OR NO CLOUDS BELOW 12,000 FEET WITH NO
SIGNIFICANT WEATHER AND/OR OBSTRUCTIONS TO VISIBILITY.  THE FOLLOWING
OBSERVATION LOCATIONS DO NOT REPORT PRESENT WEATHER...PROVINCETOWN...
SMITHFIELD...BLOCK ISLAND...KEENE...AND OXFORD.

MAZALL-051700-
EASTERN MASSACHUSETTS

CITY           SKY/WX    TMP DP  RH WIND       PRES   REMARKS
BOSTON         CLOUDY    46  42  86 NE20G25   29.78F
BEVERLY        LGT RAIN  45  42  89 NE14G23   29.77F FOG
LAWRENCE       CLOUDY    48  42  80 NE15      29.80F
BEDFORD        CLOUDY    47  42  83 NE15G22   29.77F
BLUE HILL        N/A     42  42 100 NE20G32   29.73F
NORWOOD        CLOUDY    46  42  86 NE17G33   29.76F
MARSHFIELD     CLOUDY    45  41  87 NE14G22   29.78S
PLYMOUTH       CLOUDY    44  43  96 NE20G28   29.74S
TAUNTON        CLOUDY    47  41  80 NE13G29   29.74S
NEW BEDFORD    CLOUDY    46  43  89 NE22G32   29.71S
$$

MAZALL-051700-
CAPE COD AND THE ISLANDS

CITY           SKY/WX    TMP DP  RH WIND       PRES   REMARKS
FALMOUTH       HVY RAIN  45  43  93 N20G35    29.69F
HYANNIS        RAIN      45  43  93 N22G31    29.68F FOG
CHATHAM        LGT RAIN  45  44  97 NE15G26   29.69F
PROVINCETOWN   CLOUDY    45  43  93 NE20G28   29.75S
NANTUCKET      HVY RAIN  46  45  96 N25G36    29.65F FOG
MARTHAS VNYRD  CLOUDY    46  44  93 NE18G32   29.67S
$$

MAZALL-051700-
CENTRAL AND WESTERN MASSACHUSETTS

CITY           SKY/WX    TMP DP  RH WIND       PRES   REMARKS
WORCESTER      CLOUDY    44  41  89 NE12G22   29.74F
FITCHBURG      CLOUDY    49  44  83 N8        29.78F
ORANGE         CLOUDY    49  42  77 NE12      29.76F
SPRINGFIELD    NOT AVBL
WESTFIELD      CLOUDY    50  42  74 NE12G18   29.74F
NORTH ADAMS    CLOUDY    51  41  68 VRB6      29.76F
PITTSFIELD     CLOUDY    48  41  76 NE14      29.74S
$$

RIZALL-051700-
RHODE ISLAND

CITY           SKY/WX    TMP DP  RH WIND       PRES   REMARKS
PROVIDENCE     CLOUDY    47  41  80 NE21G32   29.73F
NEWPORT        CLOUDY    47  43  86 NE21G30   29.70S
BLOCK ISLAND   CLOUDY    47  43  86 NE21G28   29.68F
SMITHFIELD     CLOUDY    45  39  81 NE16G24   29.75S
WESTERLY       CLOUDY    50  41  71 N15G30    29.70R
$$

CTZALL-051700-
CONNECTICUT

CITY           SKY/WX    TMP DP  RH WIND       PRES   REMARKS
BRADLEY INTL   CLOUDY    52  42  69 NE15G23   29.73S
HARTFORD       CLOUDY    53  42  66 NE18G26   29.73F
BRIDGEPORT     CLOUDY    53  42  66 NE16G24   29.70F
DANBURY        CLOUDY    51  41  68 NE16      29.72F
GROTON         CLOUDY    50  48  93 NE14G29   29.69R
NEW HAVEN      CLOUDY    53  43  68 NE15G22   29.69F
CHESTER        CLOUDY    50  43  76 NE13G20   29.69F
MERIDEN        CLOUDY    52  41  66 NE15G24   29.72S
WILLIMANTIC    CLOUDY    51  41  68 NE14      29.73R
OXFORD         CLOUDY    48  39  71 NE12G22   29.72F
$$

MEZ002-015-021-024-NHZ003-005-008-011-012-014-VTZ005-008-051700-
NORTHERN NEW ENGLAND

CITY           SKY/WX    TMP DP  RH WIND       PRES   REMARKS
PORTLAND ME    CLOUDY    47  43  86 N15       29.83S
BANGOR ME      DRIZZLE   47  42  83 N15       29.87F
CONCORD NH     CLOUDY    51  42  71 NE13      29.80F
MANCHESTER NH  CLOUDY    49  43  80 NE10      29.78F
NASHUA NH      CLOUDY    48  46  93 NE5       29.79F
PORTSMOUTH NH  DRIZZLE   47  44  88 N12       29.79F FOG
JAFFREY NH     CLOUDY    46  43  89 VRB5      29.78S
KEENE NH       CLOUDY    52  43  71 NE12      29.79R
BURLINGTON VT  CLOUDY    55  44  66 NW12      29.83S
MT. WASHINGTON FOG       32  32 100 NE30        N/A  VSB 1/16WCI  18
$$

NYZ052-076-051700-
EASTERN NEW YORK

CITY           SKY/WX    TMP DP  RH WIND       PRES   REMARKS
ALBANY         CLOUDY    53  43  68 N9        29.78F
NEW YORK CITY  CLOUDY    53  44  71 E14       29.70S
$$

ANZALL-051700-
MARINE OBSERVATIONS

STATION/POSITION TIME  TEMP    WIND        PRES    VSBY  WAVE
                       AIR SEA DIR/SP/G                  HT/PER
                 (UTC) (F)     (DEG/KT/KT) (MB)    (MI)  (FT/S)
BOSTON BUOY      1550   44 47   30/ 23/ 27 1006.9F         7/ 7
BUZZARDS BAY     1500   46      30/ 30/ 35 1005.2S
NANTUCKET SOUND  1550   46 48   20/ 21/ 27 1004.5F         4/ 4
MASS BAY-STELLWA 1504   44 45                N/A    1 3/4  8/ 8
ISLE OF SHOALS   1500   44      30/ 18/ 21 1008.8R
S OF BLOCK IS    NOT AVBL
$$

......................KEY.........................
  SKY/WX - SKY CONDITION/PRESENT WEATHER
  TMP    - TEMPERATURE IN FAHRENHEIT
  DWPT   - DEWPOINT IN FAHRENHEIT
  RH     - RELATIVE HUMIDITY IN PERCENT
  WIND   - DIRECTION AND SPEED IN MPH
  PRES   - MEAN SEA LEVEL PRESSURE IN INCHES OF HG
  WCI    - WIND CHILL INDEX
  VSB    - VISIBILITY IN MILES
  HX     - HEAT INDEX
  TC     - TEMPERATURE IN CELSIUS
  VRB    - VARIABLE WIND DIRECTION
  N/A    - NOT AVAILABLE




USA.gov is the U.S. government's official web portal to all federal, state and local government web resources and services.